カタログに戻る

TIANQI 26

運用中通信LEO
NORAD 59910·PAYLOAD·🇨🇳 China

打ち上げ May 29, 2024 から Yellow Sea Launch Area

Loading…

次のパス (今後24時間)

TLE

最新Source: Space-Track

元期: Sep 14, 2026, 11:25 UTC

1 59910U 24102B   26257.47615116 -.00000026  00000-0  70169-4 0  9992
2 59910  44.9723 224.1892 0011822 305.1291  54.8433 13.99176425117416

AllMySatでTIANQI 26をリアルタイム追跡

Download on the App Store